Time,TemperatureF,DewpointF,PressureIn,WindDirection,WindDirectionDegrees,WindSpeedMPH,WindSpeedGustMPH,Humidity,HourlyPrecipIn,Conditions,Clouds,dailyrainin,SoftwareType,DateUTC
2013-08-12 00:02:00,61.8,61.0,35.15,NE,47,0.0,0.0,97,0.00,n/a,n/a,-99.99,Henriksen +1-Wire,2013-08-12 04:02:00,
2013-08-12 00:03:00,61.8,61.0,35.15,ENE,66,0.0,0.0,97,0.00,n/a,n/a,-99.99,Henriksen +1-Wire,2013-08-12 04:03:00,
2013-08-12 00:04:00,61.7,61.0,35.15,East,94,0.0,0.0,97,0.00,n/a,n/a,-99.99,Henriksen +1-Wire,2013-08-12 04:04:00,
2013-08-12 00:09:00,61.6,61.1,35.16,SSE,148,0.0,0.0,98,0.00,n/a,n/a,-99.99,Henriksen +1-Wire,2013-08-12 04:09:00,
2013-08-12 00:12:00,61.5,61.0,35.15,South,187,0.0,0.0,98,0.00,n/a,n/a,-99.99,Henriksen +1-Wire,2013-08-12 04:12:00,
2013-08-12 00:17:00,61.3,60.8,35.14,South,172,0.0,0.0,98,0.00,n/a,n/a,-99.99,Henriksen +1-Wire,2013-08-12 04:17:00,
2013-08-12 00:23:00,61.1,60.6,35.14,SW,214,0.0,0.0,98,0.00,n/a,n/a,-99.99,Henriksen +1-Wire,2013-08-12 04:23:00,
2013-08-12 02:24:00,58.1,58.1,35.11,NNE,21,0.0,0.0,100,0.00,n/a,n/a,-99.99,Henriksen +1-Wire,2013-08-12 06:24:00,
2013-08-12 02:29:00,58.0,58.0,35.11,NNE,25,0.0,0.0,100,0.00,n/a,n/a,-99.99,Henriksen +1-Wire,2013-08-12 06:29:00,
2013-08-12 02:34:00,58.0,58.0,35.11,NE,51,0.0,0.0,100,0.00,n/a,n/a,-99.99,Henriksen +1-Wire,2013-08-12 06:34:00,
2013-08-12 02:39:00,57.9,57.9,35.09,ENE,65,0.0,0.0,100,0.00,n/a,n/a,-99.99,Henriksen +1-Wire,2013-08-12 06:39:00,
2013-08-12 02:45:00,57.8,57.8,35.09,ESE,118,0.0,0.0,100,0.00,n/a,n/a,-99.99,Henriksen +1-Wire,2013-08-12 06:45:00,
2013-08-12 02:50:00,57.8,57.8,35.09,ESE,120,0.0,0.0,100,0.00,n/a,n/a,-99.99,Henriksen +1-Wire,2013-08-12 06:50:00,
2013-08-12 02:55:00,57.7,57.7,35.09,East,88,0.0,0.0,100,0.00,n/a,n/a,-99.99,Henriksen +1-Wire,2013-08-12 06:55:00,
2013-08-12 03:00:00,57.7,57.7,35.09,East,101,0.0,0.0,100,0.00,n/a,n/a,-99.99,Henriksen +1-Wire,2013-08-12 07:00:00,
2013-08-12 03:05:00,57.6,57.6,35.10,SE,138,0.0,0.0,100,0.00,n/a,n/a,-99.99,Henriksen +1-Wire,2013-08-12 07:05:00,
2013-08-12 03:10:00,57.6,57.6,35.11,SSE,159,0.0,0.0,100,0.00,n/a,n/a,-99.99,Henriksen +1-Wire,2013-08-12 07:10:00,
2013-08-12 03:15:00,57.5,57.5,35.10,South,177,0.0,0.0,100,0.00,n/a,n/a,-99.99,Henriksen +1-Wire,2013-08-12 07:15:00,
2013-08-12 03:20:00,57.5,57.5,35.09,SSW,195,0.0,0.0,100,0.00,n/a,n/a,-99.99,Henriksen +1-Wire,2013-08-12 07:20:00,
2013-08-12 03:25:00,57.5,57.5,35.10,SW,222,0.0,0.0,100,0.00,n/a,n/a,-99.99,Henriksen +1-Wire,2013-08-12 07:25:00,
2013-08-12 03:30:00,57.5,57.5,35.10,SW,214,0.0,0.0,100,0.00,n/a,n/a,-99.99,Henriksen +1-Wire,2013-08-12 07:30:00,
2013-08-12 03:35:00,57.5,57.5,35.09,South,184,0.0,0.0,100,0.00,n/a,n/a,-99.99,Henriksen +1-Wire,2013-08-12 07:35:00,
2013-08-12 03:41:00,57.6,57.6,35.09,SSW,198,0.3,1.1,100,0.00,n/a,n/a,-99.99,Henriksen +1-Wire,2013-08-12 07:41:00,
2013-08-12 03:46:00,57.5,57.5,35.08,South,189,0.0,1.1,100,0.00,n/a,n/a,-99.99,Henriksen +1-Wire,2013-08-12 07:46:00,
2013-08-12 03:51:00,57.5,57.5,35.08,SSW,194,0.0,0.6,100,0.00,n/a,n/a,-99.99,Henriksen +1-Wire,2013-08-12 07:51:00,
2013-08-12 03:57:00,57.5,57.5,35.08,WSW,247,0.0,0.0,100,0.00,n/a,n/a,-99.99,Henriksen +1-Wire,2013-08-12 07:57:00,
2013-08-12 04:02:00,57.5,57.5,35.08,SW,232,0.0,0.0,100,0.00,n/a,n/a,-99.99,Henriksen +1-Wire,2013-08-12 08:02:00,
2013-08-12 04:07:00,57.4,57.4,35.09,East,88,0.0,0.9,100,0.00,n/a,n/a,-99.99,Henriksen +1-Wire,2013-08-12 08:07:00,
2013-08-12 04:12:00,57.4,57.4,35.09,NE,46,0.4,1.3,100,0.00,n/a,n/a,-99.99,Henriksen +1-Wire,2013-08-12 08:12:00,
2013-08-12 04:17:00,57.3,57.3,35.09,NE,52,0.0,1.3,100,0.00,n/a,n/a,-99.99,Henriksen +1-Wire,2013-08-12 08:17:00,
2013-08-12 04:22:00,57.3,57.3,35.09,ENE,57,0.0,0.4,100,0.00,n/a,n/a,-99.99,Henriksen +1-Wire,2013-08-12 08:22:00,
2013-08-12 04:27:00,57.3,57.3,35.08,SE,135,0.0,0.4,100,0.00,n/a,n/a,-99.99,Henriksen +1-Wire,2013-08-12 08:27:00,
2013-08-12 04:32:00,57.3,57.3,35.07,West,275,0.0,0.0,100,0.00,n/a,n/a,-99.99,Henriksen +1-Wire,2013-08-12 08:32:00,
2013-08-12 04:37:00,57.2,57.2,35.06,SSE,152,0.0,0.0,100,0.00,n/a,n/a,-99.99,Henriksen +1-Wire,2013-08-12 08:37:00,
2013-08-12 04:42:00,57.1,57.1,35.07,South,182,0.0,0.0,100,0.00,n/a,n/a,-99.99,Henriksen +1-Wire,2013-08-12 08:42:00,
2013-08-12 04:47:00,57.1,57.1,35.08,SSW,197,0.0,0.0,100,0.00,n/a,n/a,-99.99,Henriksen +1-Wire,2013-08-12 08:47:00,
2013-08-12 04:52:00,57.1,57.1,35.08,SW,218,0.0,0.0,100,0.00,n/a,n/a,-99.99,Henriksen +1-Wire,2013-08-12 08:52:00,
2013-08-12 04:57:00,57.0,57.0,35.08,SW,223,0.0,0.0,100,0.00,n/a,n/a,-99.99,Henriksen +1-Wire,2013-08-12 08:57:00,
2013-08-12 05:02:00,57.0,57.0,35.08,NW,314,0.0,0.0,100,0.00,n/a,n/a,-99.99,Henriksen +1-Wire,2013-08-12 09:02:00,
2013-08-12 05:03:00,57.0,57.0,35.08,NW,306,0.0,0.0,100,0.00,n/a,n/a,-99.99,Henriksen +1-Wire,2013-08-12 09:03:00,
2013-08-12 05:08:00,57.0,57.0,35.07,West,264,0.0,0.0,100,0.00,n/a,n/a,-99.99,Henriksen +1-Wire,2013-08-12 09:08:00,
2013-08-12 05:13:00,57.0,57.0,35.06,East,79,0.0,0.0,100,0.00,n/a,n/a,-99.99,Henriksen +1-Wire,2013-08-12 09:13:00,
2013-08-12 05:19:00,57.0,57.0,35.06,East,83,0.0,0.0,100,0.00,n/a,n/a,-99.99,Henriksen +1-Wire,2013-08-12 09:19:00,
2013-08-12 05:24:00,57.0,57.0,35.06,SSE,153,0.0,0.0,100,0.00,n/a,n/a,-99.99,Henriksen +1-Wire,2013-08-12 09:24:00,
2013-08-12 05:29:00,57.0,57.0,35.06,South,176,0.0,0.0,100,0.00,n/a,n/a,-99.99,Henriksen +1-Wire,2013-08-12 09:29:00,
2013-08-12 05:34:00,57.0,57.0,35.05,South,178,0.0,0.0,100,0.00,n/a,n/a,-99.99,Henriksen +1-Wire,2013-08-12 09:34:00,
2013-08-12 05:40:00,57.1,57.1,35.06,SSW,203,0.0,0.0,100,0.00,n/a,n/a,-99.99,Henriksen +1-Wire,2013-08-12 09:40:00,
2013-08-12 05:45:00,57.1,57.1,35.07,East,83,0.0,0.0,100,0.00,n/a,n/a,-99.99,Henriksen +1-Wire,2013-08-12 09:45:00,
2013-08-12 05:50:00,57.1,57.1,35.07,East,83,0.0,0.0,100,0.00,n/a,n/a,-99.99,Henriksen +1-Wire,2013-08-12 09:50:00,
2013-08-12 05:56:00,57.1,57.1,35.08,ESE,104,0.0,0.0,100,0.00,n/a,n/a,-99.99,Henriksen +1-Wire,2013-08-12 09:56:00,
2013-08-12 06:01:00,57.1,57.1,35.07,NE,50,0.0,0.0,100,0.00,n/a,n/a,-99.99,Henriksen +1-Wire,2013-08-12 10:01:00,
2013-08-12 06:06:00,57.1,57.1,35.06,NE,49,0.0,0.8,100,0.00,n/a,n/a,-99.99,Henriksen +1-Wire,2013-08-12 10:06:00,
2013-08-12 06:11:00,57.2,57.2,35.07,NE,42,0.0,0.8,100,0.00,n/a,n/a,-99.99,Henriksen +1-Wire,2013-08-12 10:11:00,
2013-08-12 06:16:00,57.2,57.2,35.06,NE,54,0.0,0.0,100,0.00,n/a,n/a,-99.99,Henriksen +1-Wire,2013-08-12 10:16:00,
2013-08-12 06:21:00,57.4,57.4,35.06,NNE,18,0.2,1.4,100,0.00,n/a,n/a,-99.99,Henriksen +1-Wire,2013-08-12 10:21:00,
2013-08-12 06:26:00,57.6,57.6,35.06,North,7,0.0,1.7,100,0.00,n/a,n/a,-99.99,Henriksen +1-Wire,2013-08-12 10:26:00,
2013-08-12 06:32:00,57.9,57.9,35.06,SSE,165,0.0,1.8,100,0.00,n/a,n/a,-99.99,Henriksen +1-Wire,2013-08-12 10:32:00,
2013-08-12 06:38:00,58.2,58.2,35.06,NNW,347,0.0,0.0,100,0.00,n/a,n/a,-99.99,Henriksen +1-Wire,2013-08-12 10:38:00,
2013-08-12 06:44:00,58.5,58.5,35.06,NNW,337,0.0,0.0,100,0.00,n/a,n/a,-99.99,Henriksen +1-Wire,2013-08-12 10:44:00,
2013-08-12 06:49:00,58.8,58.8,35.06,SE,138,0.0,0.0,100,0.00,n/a,n/a,-99.99,Henriksen +1-Wire,2013-08-12 10:49:00,
2013-08-12 06:54:00,59.0,59.0,35.06,NW,324,0.0,0.0,100,0.00,n/a,n/a,-99.99,Henriksen +1-Wire,2013-08-12 10:54:00,
2013-08-12 06:59:00,59.2,59.2,35.07,NNW,329,0.0,0.0,100,0.00,n/a,n/a,-99.99,Henriksen +1-Wire,2013-08-12 10:59:00,
2013-08-12 07:04:00,59.4,59.4,35.09,SSE,151,0.0,0.0,100,0.00,n/a,n/a,-99.99,Henriksen +1-Wire,2013-08-12 11:04:00,
2013-08-12 07:09:00,59.6,59.6,35.09,South,172,0.0,0.0,100,0.00,n/a,n/a,-99.99,Henriksen +1-Wire,2013-08-12 11:09:00,
2013-08-12 07:14:00,59.8,59.8,35.09,ESE,111,0.0,0.0,100,0.00,n/a,n/a,-99.99,Henriksen +1-Wire,2013-08-12 11:14:00,
2013-08-12 07:19:00,60.0,60.0,35.09,ESE,123,0.0,0.0,100,0.00,n/a,n/a,-99.99,Henriksen +1-Wire,2013-08-12 11:19:00,
2013-08-12 07:24:00,60.1,60.1,35.09,NW,320,0.0,0.0,100,0.00,n/a,n/a,-99.99,Henriksen +1-Wire,2013-08-12 11:24:00,
2013-08-12 07:29:00,60.2,60.2,35.09,NW,318,0.0,0.0,100,0.00,n/a,n/a,-99.99,Henriksen +1-Wire,2013-08-12 11:29:00,
2013-08-12 07:34:00,60.3,60.3,35.10,North,2,0.4,1.8,100,0.00,n/a,n/a,-99.99,Henriksen +1-Wire,2013-08-12 11:34:00,
2013-08-12 07:39:00,60.6,60.6,35.11,North,1,0.5,1.8,100,0.00,n/a,n/a,-99.99,Henriksen +1-Wire,2013-08-12 11:39:00,
2013-08-12 07:44:00,61.0,61.0,35.11,North,4,0.0,1.4,100,0.00,n/a,n/a,-99.99,Henriksen +1-Wire,2013-08-12 11:44:00,
2013-08-12 07:49:00,61.4,61.4,35.10,North,4,0.0,1.4,99,0.00,n/a,n/a,-99.99,Henriksen +1-Wire,2013-08-12 11:49:00,
2013-08-12 07:55:00,62.0,61.9,35.09,South,184,0.0,1.2,99,0.00,n/a,n/a,-99.99,Henriksen +1-Wire,2013-08-12 11:55:00,
2013-08-12 08:01:00,62.6,62.4,35.09,NW,307,0.0,0.6,99,0.00,n/a,n/a,-99.99,Henriksen +1-Wire,2013-08-12 12:01:00,
2013-08-12 08:06:00,63.0,62.5,35.09,NNW,337,0.0,1.2,98,0.00,n/a,n/a,-99.99,Henriksen +1-Wire,2013-08-12 12:06:00,
2013-08-12 08:11:00,63.2,62.4,35.09,NNE,25,0.5,1.9,97,0.00,n/a,n/a,-99.99,Henriksen +1-Wire,2013-08-12 12:11:00,
2013-08-12 08:16:00,63.6,62.3,35.09,NNW,336,0.7,1.9,95,0.00,n/a,n/a,-99.99,Henriksen +1-Wire,2013-08-12 12:16:00,
2013-08-12 08:22:00,64.2,62.2,35.09,North,8,1.3,2.5,93,0.00,n/a,n/a,-99.99,Henriksen +1-Wire,2013-08-12 12:22:00,
2013-08-12 08:27:00,64.5,62.0,35.08,North,10,1.5,3.6,91,0.00,n/a,n/a,-99.99,Henriksen +1-Wire,2013-08-12 12:27:00,
2013-08-12 08:32:00,65.2,62.1,35.08,North,1,0.2,3.6,89,0.00,n/a,n/a,-99.99,Henriksen +1-Wire,2013-08-12 12:32:00,
2013-08-12 08:38:00,65.7,62.2,35.08,NNW,327,1.0,2.4,88,0.00,n/a,n/a,-99.99,Henriksen +1-Wire,2013-08-12 12:38:00,
2013-08-12 08:44:00,66.2,62.4,35.07,West,272,0.7,2.4,87,0.00,n/a,n/a,-99.99,Henriksen +1-Wire,2013-08-12 12:44:00,
2013-08-12 08:49:00,66.4,62.5,35.06,West,276,0.9,1.8,86,0.00,n/a,n/a,-99.99,Henriksen +1-Wire,2013-08-12 12:49:00,
2013-08-12 08:55:00,66.7,62.5,35.06,North,0,0.6,1.8,85,0.00,n/a,n/a,-99.99,Henriksen +1-Wire,2013-08-12 12:55:00,
2013-08-12 09:00:00,67.0,62.6,35.06,North,2,1.2,2.5,85,0.00,n/a,n/a,-99.99,Henriksen +1-Wire,2013-08-12 13:00:00,
2013-08-12 09:05:00,67.2,62.8,35.05,NW,322,1.3,2.9,85,0.00,n/a,n/a,-99.99,Henriksen +1-Wire,2013-08-12 13:05:00,
2013-08-12 09:11:00,67.5,62.7,35.05,NNW,341,1.3,2.9,84,0.00,n/a,n/a,-99.99,Henriksen +1-Wire,2013-08-12 13:11:00,
2013-08-12 09:16:00,67.7,62.6,35.06,NNW,338,0.9,3.6,83,0.00,n/a,n/a,-99.99,Henriksen +1-Wire,2013-08-12 13:16:00,
2013-08-12 09:21:00,67.9,62.5,35.06,NW,312,1.8,3.6,82,0.00,n/a,n/a,-99.99,Henriksen +1-Wire,2013-08-12 13:21:00,
2013-08-12 09:26:00,68.1,62.3,35.05,NNW,348,1.6,3.6,81,0.00,n/a,n/a,-99.99,Henriksen +1-Wire,2013-08-12 13:26:00,
2013-08-12 09:31:00,68.4,62.4,35.04,West,264,1.6,3.0,81,0.00,n/a,n/a,-99.99,Henriksen +1-Wire,2013-08-12 13:31:00,
2013-08-12 09:37:00,68.6,62.6,35.04,North,349,1.8,5.1,80,0.00,n/a,n/a,-99.99,Henriksen +1-Wire,2013-08-12 13:37:00,
2013-08-12 09:42:00,68.8,62.4,35.04,NNE,13,1.8,5.1,79,0.00,n/a,n/a,-99.99,Henriksen +1-Wire,2013-08-12 13:42:00,
2013-08-12 09:48:00,69.2,62.2,35.05,North,7,2.3,3.9,78,0.00,n/a,n/a,-99.99,Henriksen +1-Wire,2013-08-12 13:48:00,
2013-08-12 09:54:00,69.5,62.4,35.05,NNW,336,0.9,3.9,77,0.00,n/a,n/a,-99.99,Henriksen +1-Wire,2013-08-12 13:54:00,
2013-08-12 10:00:00,69.9,62.7,35.05,NNW,336,0.9,2.5,77,0.00,n/a,n/a,-99.99,Henriksen +1-Wire,2013-08-12 14:00:00,
2013-08-12 10:06:00,70.3,62.8,35.05,NW,323,1.9,3.6,77,0.00,n/a,n/a,-99.99,Henriksen +1-Wire,2013-08-12 14:06:00,
2013-08-12 10:11:00,70.5,63.0,35.05,NNE,31,1.5,3.6,76,0.00,n/a,n/a,-99.99,Henriksen +1-Wire,2013-08-12 14:11:00,
2013-08-12 10:16:00,70.7,62.9,35.05,North,356,1.0,3.6,76,0.00,n/a,n/a,-99.99,Henriksen +1-Wire,2013-08-12 14:16:00,
2013-08-12 10:21:00,71.1,63.2,35.05,North,0,1.0,3.6,75,0.00,n/a,n/a,-99.99,Henriksen +1-Wire,2013-08-12 14:21:00,
2013-08-12 10:26:00,71.4,63.5,35.04,NW,317,1.1,3.6,75,0.00,n/a,n/a,-99.99,Henriksen +1-Wire,2013-08-12 14:26:00,
2013-08-12 10:31:00,71.6,63.4,35.04,SE,131,0.7,3.6,75,0.00,n/a,n/a,-99.99,Henriksen +1-Wire,2013-08-12 14:31:00,
2013-08-12 10:37:00,71.9,63.7,35.04,West,262,0.7,2.4,75,0.00,n/a,n/a,-99.99,Henriksen +1-Wire,2013-08-12 14:37:00,
2013-08-12 10:43:00,72.3,64.1,35.04,West,260,1.6,3.0,74,0.00,n/a,n/a,-99.99,Henriksen +1-Wire,2013-08-12 14:43:00,
2013-08-12 10:48:00,72.8,64.1,35.04,West,273,3.1,6.6,73,0.00,n/a,n/a,-99.99,Henriksen +1-Wire,2013-08-12 14:48:00,
2013-08-12 10:53:00,73.0,64.2,35.04,North,1,1.6,6.6,73,0.00,n/a,n/a,-99.99,Henriksen +1-Wire,2013-08-12 14:53:00,
2013-08-12 10:58:00,73.2,64.7,35.04,North,3,0.8,3.6,74,0.00,n/a,n/a,-99.99,Henriksen +1-Wire,2013-08-12 14:58:00,
2013-08-12 11:03:00,73.6,65.4,35.04,North,7,1.2,3.6,75,0.00,n/a,n/a,-99.99,Henriksen +1-Wire,2013-08-12 15:03:00,
2013-08-12 11:08:00,74.2,66.0,35.04,North,1,2.0,3.3,75,0.00,n/a,n/a,-99.99,Henriksen +1-Wire,2013-08-12 15:08:00,
2013-08-12 11:14:00,75.0,65.6,35.04,West,277,1.6,3.1,72,0.00,n/a,n/a,-99.99,Henriksen +1-Wire,2013-08-12 15:14:00,
2013-08-12 11:19:00,75.5,64.9,35.04,NNW,334,1.7,3.6,69,0.00,n/a,n/a,-99.99,Henriksen +1-Wire,2013-08-12 15:19:00,
2013-08-12 11:25:00,75.8,64.3,35.04,NE,42,1.5,3.6,67,0.00,n/a,n/a,-99.99,Henriksen +1-Wire,2013-08-12 15:25:00,
2013-08-12 11:30:00,76.3,64.7,35.03,NNE,29,1.3,3.2,66,0.00,n/a,n/a,-99.99,Henriksen +1-Wire,2013-08-12 15:30:00,
2013-08-12 11:35:00,76.7,65.1,35.03,South,186,0.7,3.2,66,0.00,n/a,n/a,-99.99,Henriksen +1-Wire,2013-08-12 15:35:00,
2013-08-12 11:40:00,77.2,65.9,35.02,North,351,1.6,2.5,67,0.00,n/a,n/a,-99.99,Henriksen +1-Wire,2013-08-12 15:40:00,
2013-08-12 11:45:00,77.4,65.9,35.02,North,3,1.3,2.5,67,0.00,n/a,n/a,-99.99,Henriksen +1-Wire,2013-08-12 15:45:00,
2013-08-12 11:50:00,77.7,65.5,35.01,West,261,2.5,3.7,65,0.00,n/a,n/a,-99.99,Henriksen +1-Wire,2013-08-12 15:50:00,
2013-08-12 11:55:00,77.9,65.1,35.01,West,259,1.0,3.7,64,0.00,n/a,n/a,-99.99,Henriksen +1-Wire,2013-08-12 15:55:00,
2013-08-12 12:00:00,78.3,65.2,35.01,SW,225,1.8,3.2,63,0.00,n/a,n/a,-99.99,Henriksen +1-Wire,2013-08-12 16:00:00,
2013-08-12 12:06:00,78.7,65.2,34.99,SW,224,1.3,3.0,62,0.00,n/a,n/a,-99.99,Henriksen +1-Wire,2013-08-12 16:06:00,
2013-08-12 12:12:00,79.1,65.4,35.00,SSW,203,1.0,3.0,62,0.00,n/a,n/a,-99.99,Henriksen +1-Wire,2013-08-12 16:12:00,
2013-08-12 12:18:00,79.1,65.1,35.00,NNE,24,1.6,3.2,61,0.00,n/a,n/a,-99.99,Henriksen +1-Wire,2013-08-12 16:18:00,
2013-08-12 12:23:00,79.3,64.6,34.99,SSW,210,1.8,3.4,60,0.00,n/a,n/a,-99.99,Henriksen +1-Wire,2013-08-12 16:23:00,
2013-08-12 12:28:00,79.7,64.5,34.99,SW,219,0.9,3.4,59,0.00,n/a,n/a,-99.99,Henriksen +1-Wire,2013-08-12 16:28:00,
2013-08-12 12:29:00,79.7,64.5,34.99,SW,218,0.7,3.4,59,0.00,n/a,n/a,-99.99,Henriksen +1-Wire,2013-08-12 16:29:00,
2013-08-12 12:34:00,79.8,65.2,34.99,SW,222,1.4,3.4,60,0.00,n/a,n/a,-99.99,Henriksen +1-Wire,2013-08-12 16:34:00,
2013-08-12 12:39:00,79.9,65.3,34.99,SW,221,1.5,3.4,60,0.00,n/a,n/a,-99.99,Henriksen +1-Wire,2013-08-12 16:39:00,
2013-08-12 12:44:00,80.0,65.4,34.99,NE,42,0.9,2.4,60,0.00,n/a,n/a,-99.99,Henriksen +1-Wire,2013-08-12 16:44:00,
2013-08-12 12:49:00,80.0,65.3,34.98,North,1,1.4,3.2,60,0.00,n/a,n/a,-99.99,Henriksen +1-Wire,2013-08-12 16:49:00,
2013-08-12 12:54:00,80.2,65.3,34.98,SSW,202,2.1,3.2,59,0.00,n/a,n/a,-99.99,Henriksen +1-Wire,2013-08-12 16:54:00,
2013-08-12 12:59:00,79.7,64.1,34.98,SSW,206,1.6,4.8,58,0.00,n/a,n/a,-99.99,Henriksen +1-Wire,2013-08-12 16:59:00,
2013-08-12 13:04:00,79.2,63.1,34.97,SSW,205,1.8,4.8,57,0.00,n/a,n/a,-99.99,Henriksen +1-Wire,2013-08-12 17:04:00,
2013-08-12 13:09:00,79.3,63.5,34.97,SSW,202,2.3,4.9,57,0.00,n/a,n/a,-99.99,Henriksen +1-Wire,2013-08-12 17:09:00,
2013-08-12 13:14:00,79.4,63.9,34.96,SSW,196,2.4,5.5,58,0.00,n/a,n/a,-99.99,Henriksen +1-Wire,2013-08-12 17:14:00,
2013-08-12 13:19:00,79.3,63.7,34.96,SSW,192,1.8,5.5,58,0.00,n/a,n/a,-99.99,Henriksen +1-Wire,2013-08-12 17:19:00,
2013-08-12 13:24:00,79.0,63.9,34.96,East,88,2.4,4.3,59,0.00,n/a,n/a,-99.99,Henriksen +1-Wire,2013-08-12 17:24:00,
2013-08-12 13:30:00,78.6,64.5,34.96,South,189,1.7,4.9,61,0.00,n/a,n/a,-99.99,Henriksen +1-Wire,2013-08-12 17:30:00,
2013-08-12 13:35:00,78.7,64.7,34.95,South,186,2.5,4.2,61,0.00,n/a,n/a,-99.99,Henriksen +1-Wire,2013-08-12 17:35:00,
2013-08-12 13:40:00,79.3,64.7,34.95,SSW,206,1.9,5.0,60,0.00,n/a,n/a,-99.99,Henriksen +1-Wire,2013-08-12 17:40:00,
2013-08-12 13:45:00,79.8,64.4,34.95,SW,220,1.5,5.0,58,0.00,n/a,n/a,-99.99,Henriksen +1-Wire,2013-08-12 17:45:00,
2013-08-12 13:50:00,80.3,64.3,34.95,SW,219,1.1,4.8,57,0.00,n/a,n/a,-99.99,Henriksen +1-Wire,2013-08-12 17:50:00,
2013-08-12 13:55:00,80.7,64.5,34.94,SSW,213,2.4,4.8,57,0.00,n/a,n/a,-99.99,Henriksen +1-Wire,2013-08-12 17:55:00,
2013-08-12 14:00:00,80.9,64.7,34.94,SSW,207,3.2,5.0,57,0.00,n/a,n/a,-99.99,Henriksen +1-Wire,2013-08-12 18:00:00,
2013-08-12 14:05:00,80.4,64.6,34.94,SSW,204,1.8,5.0,57,0.00,n/a,n/a,-99.99,Henriksen +1-Wire,2013-08-12 18:05:00,
2013-08-12 14:10:00,79.9,64.6,34.93,SSW,206,2.5,5.0,58,0.00,n/a,n/a,-99.99,Henriksen +1-Wire,2013-08-12 18:10:00,
2013-08-12 14:15:00,80.1,64.9,34.93,SW,224,2.5,5.0,59,0.00,n/a,n/a,-99.99,Henriksen +1-Wire,2013-08-12 18:15:00,
2013-08-12 14:20:00,80.1,64.4,34.94,SW,226,2.0,4.8,58,0.00,n/a,n/a,-99.99,Henriksen +1-Wire,2013-08-12 18:20:00,
2013-08-12 14:25:00,80.3,64.0,34.95,West,276,1.6,4.8,57,0.00,n/a,n/a,-99.99,Henriksen +1-Wire,2013-08-12 18:25:00,
2013-08-12 16:26:00,79.2,62.4,34.89,SW,222,1.9,4.3,55,0.00,n/a,n/a,-99.99,Henriksen +1-Wire,2013-08-12 20:26:00,
2013-08-12 16:31:00,78.6,62.2,34.88,WNW,295,2.1,6.0,56,0.00,n/a,n/a,-99.99,Henriksen +1-Wire,2013-08-12 20:31:00,
2013-08-12 16:36:00,78.1,62.4,34.87,West,275,1.4,6.0,58,0.00,n/a,n/a,-99.99,Henriksen +1-Wire,2013-08-12 20:36:00,
2013-08-12 16:41:00,77.8,62.7,34.87,West,277,2.7,5.0,59,0.00,n/a,n/a,-99.99,Henriksen +1-Wire,2013-08-12 20:41:00,
2013-08-12 16:47:00,77.3,62.5,34.87,West,266,1.7,6.0,59,0.00,n/a,n/a,-99.99,Henriksen +1-Wire,2013-08-12 20:47:00,
2013-08-12 16:52:00,77.1,62.5,34.87,SW,223,0.7,6.0,60,0.00,n/a,n/a,-99.99,Henriksen +1-Wire,2013-08-12 20:52:00,
2013-08-12 16:57:00,76.8,62.7,34.87,West,267,1.5,3.1,61,0.00,n/a,n/a,-99.99,Henriksen +1-Wire,2013-08-12 20:57:00,
2013-08-12 17:02:00,76.7,63.0,34.87,SSE,163,1.0,4.3,62,0.00,n/a,n/a,-99.99,Henriksen +1-Wire,2013-08-12 21:02:00,
2013-08-12 17:07:00,76.5,62.7,34.88,NE,38,2.0,4.3,61,0.00,n/a,n/a,-99.99,Henriksen +1-Wire,2013-08-12 21:07:00,
2013-08-12 17:12:00,76.3,62.2,34.88,ESE,122,0.9,3.6,61,0.00,n/a,n/a,-99.99,Henriksen +1-Wire,2013-08-12 21:12:00,
2013-08-12 17:17:00,76.1,62.1,34.87,SE,134,0.6,3.6,61,0.00,n/a,n/a,-99.99,Henriksen +1-Wire,2013-08-12 21:17:00,
2013-08-12 17:22:00,75.9,62.2,34.87,NE,43,1.4,4.0,62,0.00,n/a,n/a,-99.99,Henriksen +1-Wire,2013-08-12 21:22:00,
2013-08-12 17:27:00,75.6,62.5,34.87,NNE,27,1.5,4.0,63,0.00,n/a,n/a,-99.99,Henriksen +1-Wire,2013-08-12 21:27:00,
2013-08-12 17:32:00,75.4,62.9,34.88,SW,223,1.8,3.4,64,0.00,n/a,n/a,-99.99,Henriksen +1-Wire,2013-08-12 21:32:00,
2013-08-12 17:37:00,75.3,62.7,34.87,SW,225,1.1,3.4,64,0.00,n/a,n/a,-99.99,Henriksen +1-Wire,2013-08-12 21:37:00,
2013-08-12 17:42:00,75.3,62.4,34.86,East,95,1.0,3.2,63,0.00,n/a,n/a,-99.99,Henriksen +1-Wire,2013-08-12 21:42:00,
2013-08-12 17:48:00,75.3,62.5,34.87,West,271,1.2,3.2,63,0.00,n/a,n/a,-99.99,Henriksen +1-Wire,2013-08-12 21:48:00,
2013-08-12 17:54:00,75.3,62.3,34.87,WSW,252,1.4,3.6,63,0.00,n/a,n/a,-99.99,Henriksen +1-Wire,2013-08-12 21:54:00,
2013-08-12 17:59:00,75.2,62.3,34.86,SW,225,1.4,3.6,63,0.00,n/a,n/a,-99.99,Henriksen +1-Wire,2013-08-12 21:59:00,
2013-08-12 18:05:00,74.9,61.9,34.86,South,182,0.0,4.2,63,0.00,n/a,n/a,-99.99,Henriksen +1-Wire,2013-08-12 22:05:00,
2013-08-12 18:10:00,74.5,62.0,34.85,South,186,1.4,3.6,64,0.00,n/a,n/a,-99.99,Henriksen +1-Wire,2013-08-12 22:10:00,
2013-08-12 18:15:00,73.7,62.0,34.85,South,181,1.9,3.6,66,0.00,n/a,n/a,-99.99,Henriksen +1-Wire,2013-08-12 22:15:00,
2013-08-12 18:20:00,72.6,62.4,34.84,South,178,0.6,3.6,70,0.00,n/a,n/a,-99.99,Henriksen +1-Wire,2013-08-12 22:20:00,
2013-08-12 18:25:00,71.5,62.7,34.84,SSE,163,1.0,3.0,73,0.00,n/a,n/a,-99.99,Henriksen +1-Wire,2013-08-12 22:25:00,
2013-08-12 18:30:00,70.6,63.0,34.84,SSE,166,2.7,4.8,76,0.00,n/a,n/a,-99.99,Henriksen +1-Wire,2013-08-12 22:30:00,
2013-08-12 18:35:00,70.1,63.2,34.84,South,186,1.4,4.8,78,0.00,n/a,n/a,-99.99,Henriksen +1-Wire,2013-08-12 22:35:00,
2013-08-12 18:40:00,69.5,63.4,34.85,South,182,1.4,3.6,80,0.00,n/a,n/a,-99.99,Henriksen +1-Wire,2013-08-12 22:40:00,
2013-08-12 18:45:00,69.0,63.3,34.86,SE,141,1.5,2.4,81,0.00,n/a,n/a,-99.99,Henriksen +1-Wire,2013-08-12 22:45:00,
2013-08-12 18:50:00,68.6,63.4,34.86,SE,139,1.8,3.1,83,0.00,n/a,n/a,-99.99,Henriksen +1-Wire,2013-08-12 22:50:00,
2013-08-12 18:56:00,68.2,63.5,34.86,SSE,158,1.2,3.1,84,0.00,n/a,n/a,-99.99,Henriksen +1-Wire,2013-08-12 22:56:00,
2013-08-12 19:01:00,67.9,63.6,34.85,SE,146,1.4,2.4,85,0.00,n/a,n/a,-99.99,Henriksen +1-Wire,2013-08-12 23:01:00,
2013-08-12 19:06:00,67.7,63.5,34.84,SSE,155,2.2,3.0,86,0.00,n/a,n/a,-99.99,Henriksen +1-Wire,2013-08-12 23:06:00,
2013-08-12 19:11:00,67.5,63.4,34.84,South,189,1.0,4.2,86,0.00,n/a,n/a,-99.99,Henriksen +1-Wire,2013-08-12 23:11:00,
2013-08-12 19:17:00,67.0,63.3,34.84,SE,146,2.3,3.6,87,0.00,n/a,n/a,-99.99,Henriksen +1-Wire,2013-08-12 23:17:00,
2013-08-12 19:22:00,66.7,63.2,34.84,SSE,149,1.7,3.6,88,0.00,n/a,n/a,-99.99,Henriksen +1-Wire,2013-08-12 23:22:00,
2013-08-12 19:27:00,66.3,63.2,34.83,SE,135,0.9,3.2,89,0.00,n/a,n/a,-99.99,Henriksen +1-Wire,2013-08-12 23:27:00,
2013-08-12 19:32:00,66.0,63.3,34.83,SSE,148,1.3,3.2,90,0.00,n/a,n/a,-99.99,Henriksen +1-Wire,2013-08-12 23:32:00,
2013-08-12 19:37:00,65.8,63.6,34.83,SSE,157,0.3,2.7,92,0.00,n/a,n/a,-99.99,Henriksen +1-Wire,2013-08-12 23:37:00,
2013-08-12 19:42:00,65.6,63.8,34.84,SE,126,0.1,2.5,94,0.00,n/a,n/a,-99.99,Henriksen +1-Wire,2013-08-12 23:42:00,
2013-08-12 19:47:00,65.3,64.0,34.84,SE,129,1.1,2.4,95,0.00,n/a,n/a,-99.99,Henriksen +1-Wire,2013-08-12 23:47:00,
2013-08-12 19:53:00,65.2,64.2,34.84,SSE,150,1.1,2.4,96,0.00,n/a,n/a,-99.99,Henriksen +1-Wire,2013-08-12 23:53:00,
2013-08-12 19:58:00,65.1,64.3,34.84,SSE,147,0.8,2.5,97,0.00,n/a,n/a,-99.99,Henriksen +1-Wire,2013-08-12 23:58:00,
2013-08-12 20:03:00,65.1,64.4,34.85,SSE,163,1.1,2.5,97,0.00,n/a,n/a,-99.99,Henriksen +1-Wire,2013-08-13 00:03:00,
2013-08-12 20:08:00,65.0,64.5,34.85,SSE,159,1.2,3.2,98,0.00,n/a,n/a,-99.99,Henriksen +1-Wire,2013-08-13 00:08:00,
2013-08-12 20:13:00,64.9,64.6,34.84,SE,137,0.2,3.2,98,0.00,n/a,n/a,-99.99,Henriksen +1-Wire,2013-08-13 00:13:00,
2013-08-12 20:18:00,64.8,64.6,34.84,SE,134,0.4,1.8,99,0.00,n/a,n/a,-99.99,Henriksen +1-Wire,2013-08-13 00:18:00,
2013-08-12 20:24:00,64.8,64.6,34.84,SE,132,0.5,2.5,99,0.00,n/a,n/a,-99.99,Henriksen +1-Wire,2013-08-13 00:24:00,
2013-08-12 20:30:00,64.7,64.6,34.85,ESE,105,0.0,2.4,99,0.00,n/a,n/a,-99.99,Henriksen +1-Wire,2013-08-13 00:30:00,
2013-08-12 20:35:00,64.6,64.6,34.85,East,90,0.0,0.0,99,0.00,n/a,n/a,-99.99,Henriksen +1-Wire,2013-08-13 00:35:00,
2013-08-12 20:40:00,64.6,64.6,34.85,ESE,113,0.0,0.0,99,0.00,n/a,n/a,-99.99,Henriksen +1-Wire,2013-08-13 00:40:00,
2013-08-12 20:46:00,64.6,64.5,34.86,South,182,1.3,2.4,99,0.00,n/a,n/a,-99.99,Henriksen +1-Wire,2013-08-13 00:46:00,
2013-08-12 20:51:00,64.6,64.4,34.86,ESE,111,0.1,2.4,99,0.00,n/a,n/a,-99.99,Henriksen +1-Wire,2013-08-13 00:51:00,
2013-08-12 20:56:00,64.5,64.4,34.86,East,85,0.2,2.2,99,0.00,n/a,n/a,-99.99,Henriksen +1-Wire,2013-08-13 00:56:00,
2013-08-12 21:01:00,64.4,64.3,34.87,East,80,0.7,1.8,99,0.00,n/a,n/a,-99.99,Henriksen +1-Wire,2013-08-13 01:01:00,
2013-08-12 21:06:00,64.4,64.3,34.87,East,99,0.0,1.8,99,0.00,n/a,n/a,-99.99,Henriksen +1-Wire,2013-08-13 01:06:00,
2013-08-12 21:12:00,64.3,64.0,34.87,ESE,106,0.0,0.6,98,0.00,n/a,n/a,-99.99,Henriksen +1-Wire,2013-08-13 01:12:00,
2013-08-12 21:18:00,64.3,63.6,34.88,ESE,111,0.0,0.0,97,0.00,n/a,n/a,-99.99,Henriksen +1-Wire,2013-08-13 01:18:00,
2013-08-12 21:24:00,64.3,63.4,34.88,SSE,152,0.4,1.8,96,0.00,n/a,n/a,-99.99,Henriksen +1-Wire,2013-08-13 01:24:00,
2013-08-12 21:29:00,64.4,63.4,34.88,SE,138,0.3,2.2,96,0.00,n/a,n/a,-99.99,Henriksen +1-Wire,2013-08-13 01:29:00,
2013-08-12 21:34:00,64.4,63.3,34.88,East,88,0.6,2.4,96,0.00,n/a,n/a,-99.99,Henriksen +1-Wire,2013-08-13 01:34:00,
2013-08-12 21:39:00,64.3,63.4,34.88,East,97,0.0,2.4,96,0.00,n/a,n/a,-99.99,Henriksen +1-Wire,2013-08-13 01:39:00,
2013-08-12 21:45:00,64.4,63.5,34.87,ENE,72,0.0,0.8,96,0.00,n/a,n/a,-99.99,Henriksen +1-Wire,2013-08-13 01:45:00,
2013-08-12 21:51:00,64.5,63.6,34.87,SSW,196,1.3,3.6,96,0.00,n/a,n/a,-99.99,Henriksen +1-Wire,2013-08-13 01:51:00,
2013-08-12 21:56:00,64.7,63.7,34.86,SSW,202,0.4,3.6,96,0.00,n/a,n/a,-99.99,Henriksen +1-Wire,2013-08-13 01:56:00,
2013-08-12 22:02:00,65.0,63.6,34.84,SW,216,1.1,3.0,95,0.00,n/a,n/a,-99.99,Henriksen +1-Wire,2013-08-13 02:02:00,
2013-08-12 22:07:00,65.1,63.5,34.85,SSW,194,0.7,3.0,94,0.00,n/a,n/a,-99.99,Henriksen +1-Wire,2013-08-13 02:07:00,
2013-08-12 22:12:00,65.2,63.4,34.85,SSE,166,0.4,2.4,93,0.00,n/a,n/a,-99.99,Henriksen +1-Wire,2013-08-13 02:12:00,
2013-08-12 22:17:00,65.4,63.2,34.84,South,189,0.9,1.8,92,0.00,n/a,n/a,-99.99,Henriksen +1-Wire,2013-08-13 02:17:00,
2013-08-12 22:22:00,65.4,63.0,34.83,SSE,154,0.9,3.0,91,0.00,n/a,n/a,-99.99,Henriksen +1-Wire,2013-08-13 02:22:00,
2013-08-12 22:27:00,65.2,62.9,34.83,SSE,168,0.0,3.0,91,0.00,n/a,n/a,-99.99,Henriksen +1-Wire,2013-08-13 02:27:00,
2013-08-12 22:32:00,65.0,62.7,34.83,SSE,164,0.0,0.6,92,0.00,n/a,n/a,-99.99,Henriksen +1-Wire,2013-08-13 02:32:00,
2013-08-12 22:37:00,64.8,62.8,34.84,SSE,154,0.0,0.1,93,0.00,n/a,n/a,-99.99,Henriksen +1-Wire,2013-08-13 02:37:00,
2013-08-12 22:42:00,64.4,62.6,34.84,SE,131,1.6,2.4,93,0.00,n/a,n/a,-99.99,Henriksen +1-Wire,2013-08-13 02:42:00,
2013-08-12 22:47:00,64.1,62.7,34.84,SE,133,0.7,2.4,95,0.00,n/a,n/a,-99.99,Henriksen +1-Wire,2013-08-13 02:47:00,
2013-08-12 22:52:00,63.8,62.7,34.84,SE,145,0.3,2.4,96,0.00,n/a,n/a,-99.99,Henriksen +1-Wire,2013-08-13 02:52:00,
2013-08-12 22:57:00,63.6,62.8,34.84,SSE,154,0.0,1.8,97,0.00,n/a,n/a,-99.99,Henriksen +1-Wire,2013-08-13 02:57:00,
2013-08-12 23:02:00,63.3,62.8,34.84,SSE,167,0.4,2.5,98,0.00,n/a,n/a,-99.99,Henriksen +1-Wire,2013-08-13 03:02:00,
2013-08-12 23:07:00,63.2,62.8,34.84,SSE,159,0.0,2.5,98,0.00,n/a,n/a,-99.99,Henriksen +1-Wire,2013-08-13 03:07:00,
2013-08-12 23:12:00,63.1,62.8,34.84,East,95,0.0,0.6,99,0.00,n/a,n/a,-99.99,Henriksen +1-Wire,2013-08-13 03:12:00,
2013-08-12 23:17:00,62.9,62.8,34.83,East,80,0.0,0.0,99,0.00,n/a,n/a,-99.99,Henriksen +1-Wire,2013-08-13 03:17:00,
2013-08-12 23:22:00,62.8,62.7,34.83,East,82,0.0,0.0,99,0.00,n/a,n/a,-99.99,Henriksen +1-Wire,2013-08-13 03:22:00,
2013-08-12 23:28:00,62.7,62.7,34.83,ESE,110,0.0,0.0,99,0.00,n/a,n/a,-99.99,Henriksen +1-Wire,2013-08-13 03:28:00,
2013-08-12 23:33:00,62.7,62.7,34.83,South,171,0.0,0.0,99,0.00,n/a,n/a,-99.99,Henriksen +1-Wire,2013-08-13 03:33:00,
2013-08-12 23:38:00,62.7,62.7,34.82,SSE,151,0.0,0.0,99,0.00,n/a,n/a,-99.99,Henriksen +1-Wire,2013-08-13 03:38:00,
2013-08-12 23:44:00,62.6,62.6,34.82,East,93,0.0,0.0,100,0.00,n/a,n/a,-99.99,Henriksen +1-Wire,2013-08-13 03:44:00,
2013-08-12 23:49:00,62.6,62.6,34.83,ESE,105,0.0,0.0,100,0.00,n/a,n/a,-99.99,Henriksen +1-Wire,2013-08-13 03:49:00,